Stations météo

Publicité
Socoa, France (7600): Température de l'air & dewpoint: 11.12.2017 03:00:00 - 17.12.2017 03:00:00 (CET)Socoa, France (7600): Vitesse du vent & gusts: 11.12.2017 03:00:00 - 17.12.2017 03:00:00 (CET)Socoa, France (7600): Direction du vent: 11.12.2017 03:00:00 - 17.12.2017 03:00:00 (CET)Socoa, France (7600): reduced air pressure: 11.12.2017 03:00:00 - 17.12.2017 03:00:00 (CET)Socoa, France (7600): visibility: 11.12.2017 03:00:00 - 17.12.2017 03:00:00 (CET)Socoa, France (7600): Quantités de précipitations: 11.12.2017 03:00:00 - 17.12.2017 03:00:00 (CET)
Date & Time tt [°C] td [°C] ff [km/h] ff [knt] fx [km/h] fx [knt] dd ppp [hPa] vv [km] rr [mm]
17.12.2017 03:00:00 4,1 3,2 14 7 23 12 S 1030,4 - 0,0
17.12.2017 02:00:00 4,3 3,6 13 7 19 10 S 1030,1 - 0,0
17.12.2017 01:00:00 4,7 3,8 14 7 18 10 S 1030,2 - 0,0
17.12.2017 00:00:00 5,4 4,2 5 3 17 9 SSE 1030,3 - 1,2
16.12.2017 23:00:00 4,5 3,5 11 6 15 8 S 1029,7 - 0,0
16.12.2017 22:00:00 5,0 3,3 6 3 16 9 SSE 1029,2 12 0,0
16.12.2017 21:00:00 5,6 3,6 10 5 29 16 S 1028,8 - 0,0
16.12.2017 20:00:00 7,5 5,6 28 15 48 26 ENE 1027,9 - 0,0
16.12.2017 19:00:00 6,9 4,9 8 5 15 8 SSW 1027,0 15 0,0
16.12.2017 18:00:00 8,7 4,7 9 5 27 15 N 1026,1 - 0,0
16.12.2017 17:00:00 9,2 5,0 19 11 31 17 N 1025,4 - 0,0
16.12.2017 16:00:00 9,1 6,5 6 3 11 6 S 1024,5 15 0,0
16.12.2017 15:00:00 8,3 6,1 3 2 17 9 SSW 1024,3 - 2,0
16.12.2017 14:00:00 8,6 5,3 14 8 31 17 WSW 1023,9 - 0,4
16.12.2017 13:00:00 9,1 5,1 20 11 31 17 SW 1023,2 - 0,0
16.12.2017 12:00:00 11,1 7,0 7 4 14 8 SW 1023,1 - 0,0
16.12.2017 11:00:00 8,9 6,5 8 5 12 7 S 1022,5 - 0,0
16.12.2017 10:00:00 7,2 6,0 10 5 18 10 S 1021,8 10 0,0
16.12.2017 09:00:00 7,7 5,7 8 4 18 10 SSW 1020,9 - 1,4
16.12.2017 08:00:00 7,5 6,0 11 6 19 10 ESE 1020,0 - 0,4
16.12.2017 07:00:00 8,2 5,8 17 9 60 32 ENE 1019,1 - 0,4
16.12.2017 06:00:00 8,6 5,0 32 17 87 47 N 1018,2 - 2,7
16.12.2017 05:00:00 10,0 4,4 29 15 72 39 N 1017,0 - 1,8
16.12.2017 04:00:00 10,3 5,7 44 24 73 39 N 1016,9 12 0,0
16.12.2017 03:00:00 11,1 6,0 50 27 68 37 NNW 1016,0 - 0,4
16.12.2017 02:00:00 10,6 6,0 51 28 77 42 NW 1015,7 - 0,0
16.12.2017 01:00:00 10,6 6,0 45 24 68 37 WNW 1015,5 15 0,4
16.12.2017 00:00:00 11,3 5,4 42 23 62 34 NW 1015,6 - 0,0
15.12.2017 23:00:00 11,1 5,6 35 19 64 35 WNW 1015,0 - 0,0
15.12.2017 22:00:00 10,2 4,8 38 20 70 38 NW 1014,2 - 0,8
15.12.2017 21:00:00 9,8 7,0 38 21 78 42 WNW 1013,9 - 3,7
15.12.2017 20:00:00 11,1 5,8 37 20 83 45 WNW 1013,3 - 0,0
15.12.2017 19:00:00 10,5 6,8 36 19 71 39 W 1012,9 18 0,4
15.12.2017 18:00:00 9,0 5,7 23 12 51 28 SW 1012,1 - 0,0
15.12.2017 17:00:00 10,3 7,5 30 16 73 40 W 1011,8 - 0,0
15.12.2017 16:00:00 11,1 7,4 42 23 74 40 W 1010,8 15 0,3
15.12.2017 15:00:00 10,1 7,5 53 28 74 40 W 1010,2 - 1,0
15.12.2017 14:00:00 9,1 7,4 28 15 51 28 WSW 1011,0 - 2,2
15.12.2017 13:00:00 8,7 6,5 33 18 56 31 SW 1011,2 12 0,4
15.12.2017 12:00:00 8,0 6,0 27 15 50 27 SW 1012,0 - 1,0
15.12.2017 11:00:00 8,7 6,8 25 13 41 22 SW 1011,9 - 1,8
15.12.2017 10:00:00 7,7 5,8 25 14 44 24 SSW 1011,8 12 1,8
15.12.2017 09:00:00 7,6 5,6 27 15 46 25 SW 1011,2 - 0,8
15.12.2017 08:00:00 7,8 5,8 26 14 50 27 SW 1010,8 - 1,0
15.12.2017 07:00:00 8,2 5,5 24 13 80 43 SW 1010,3 10 1,0
15.12.2017 06:00:00 9,3 7,7 48 26 72 39 WNW 1011,0 - 5,1
15.12.2017 05:00:00 9,8 8,4 37 20 129 70 NNW 1010,1 - 4,2
15.12.2017 04:00:00 11,6 7,7 64 35 86 47 WNW 1009,4 10 0,0
15.12.2017 03:00:00 12,4 5,8 36 20 66 36 WSW 1009,5 - 0,0
15.12.2017 02:00:00 12,5 7,8 41 22 92 50 WSW 1010,3 - 0,0
15.12.2017 01:00:00 13,6 8,0 64 34 92 50 W 1010,8 15 0,0
15.12.2017 00:00:00 13,1 9,3 59 32 78 42 W 1011,3 - 0,0
14.12.2017 23:00:00 13,0 9,1 32 17 49 26 WSW 1011,6 - 0,0
14.12.2017 22:00:00 12,9 9,5 38 21 64 35 WSW 1011,8 - 1,0
14.12.2017 21:00:00 12,9 10,3 37 20 54 29 WSW 1012,2 - 0,2
14.12.2017 20:00:00 12,5 10,4 32 17 52 28 WSW 1012,3 - 0,2
14.12.2017 19:00:00 12,8 11,4 35 19 56 30 W 1012,5 8 0,2
14.12.2017 18:00:00 13,6 10,8 36 20 63 34 W 1012,6 - 0,0
14.12.2017 17:00:00 14,1 9,7 24 13 45 25 WSW 1013,0 - 0,0
14.12.2017 16:00:00 14,1 10,7 27 15 51 27 W 1013,6 20 0,0
14.12.2017 15:00:00 14,1 10,3 37 20 54 29 W 1014,0 - 0,0
14.12.2017 14:00:00 14,0 10,8 24 13 31 17 W 1014,9 - 0,0
14.12.2017 13:00:00 15,0 10,6 23 12 37 20 W 1015,3 - 0,0
14.12.2017 12:00:00 14,8 9,6 23 13 38 21 SW 1015,9 - 0,0
14.12.2017 11:00:00 12,9 10,4 19 10 33 18 SW 1016,7 - 0,0
14.12.2017 10:00:00 11,8 10,0 18 10 40 22 SW 1017,7 - 0,2
14.12.2017 09:00:00 11,7 10,1 21 11 42 23 WSW 1017,9 - 0,4
14.12.2017 08:00:00 11,7 10,1 22 12 39 21 SW 1018,1 - 0,4
14.12.2017 07:00:00 11,6 10,0 29 16 46 25 SW 1017,9 15 0,6
14.12.2017 06:00:00 11,5 10,2 26 14 44 24 SW 1017,8 - 0,2
14.12.2017 05:00:00 11,4 10,6 23 13 49 26 SW 1018,4 - 1,1
14.12.2017 04:00:00 11,3 10,5 25 14 45 24 SW 1018,7 12 2,4
14.12.2017 03:00:00 11,8 11,3 26 14 39 21 W 1018,9 - 1,8
14.12.2017 02:00:00 11,4 10,8 16 8 30 16 SSW 1018,5 - 0,8
14.12.2017 01:00:00 11,7 10,9 14 7 27 15 SSW 1019,2 15 0,2
14.12.2017 00:00:00 12,2 10,9 18 10 59 32 SW 1019,3 - 0,6
13.12.2017 23:00:00 13,3 11,5 46 25 68 37 W 1019,0 - 0,0
13.12.2017 22:00:00 12,4 9,8 22 12 44 24 SW 1018,2 20 0,2
13.12.2017 21:00:00 14,1 6,7 25 13 37 20 SW 1017,8 - 0,0
13.12.2017 20:00:00 12,8 5,5 9 5 25 14 SSW 1017,8 - 0,0
13.12.2017 19:00:00 13,7 4,8 22 12 56 30 SW 1017,8 20 0,0
13.12.2017 18:00:00 13,8 4,1 24 13 61 33 SW 1017,4 - 0,0
13.12.2017 17:00:00 13,3 3,4 16 9 25 14 SSW 1017,1 - 0,0
13.12.2017 16:00:00 12,5 3,2 15 8 40 21 S 1017,1 20 0,0
13.12.2017 15:00:00 12,0 3,5 22 12 42 23 S 1018,1 - 0,0
13.12.2017 14:00:00 12,0 3,5 26 14 44 24 S 1018,7 - 0,0
13.12.2017 13:00:00 12,0 3,5 24 13 41 22 S 1019,6 20 0,0
13.12.2017 12:00:00 11,4 3,7 30 16 45 24 S 1020,4 - 0,0
13.12.2017 11:00:00 10,5 4,8 14 8 29 16 S 1021,4 - 0,0
13.12.2017 10:00:00 10,1 5,5 10 5 29 16 S 1021,4 20 0,0
13.12.2017 09:00:00 9,7 4,5 12 7 35 19 SSW 1021,5 - 0,0
13.12.2017 08:00:00 9,2 2,1 13 7 32 17 S 1021,5 - 0,0
13.12.2017 07:00:00 9,2 1,1 16 9 40 22 S 1020,6 18 0,0
13.12.2017 06:00:00 8,7 0,9 31 17 46 25 S 1020,3 - 0,0
13.12.2017 05:00:00 7,9 1,1 23 12 32 17 S 1021,0 - 0,0
13.12.2017 04:00:00 6,9 1,4 19 10 31 17 S 1021,6 15 0,0
13.12.2017 03:00:00 7,7 1,5 19 11 31 17 S 1021,4 - 0,0
13.12.2017 02:00:00 7,0 2,5 19 10 22 12 S 1021,7 - 0,0
13.12.2017 01:00:00 7,5 3,2 16 9 20 11 S 1022,3 - 0,0
13.12.2017 00:00:00 7,2 3,6 10 5 18 10 S 1022,7 - 0,0
12.12.2017 23:00:00 8,3 2,7 9 5 27 14 SW 1022,4 - 0,0
12.12.2017 22:00:00 6,5 3,8 16 9 23 12 SSW 1021,8 18 0,0
12.12.2017 21:00:00 6,3 3,3 12 6 21 11 S 1021,4 - 0,0
12.12.2017 20:00:00 7,5 3,2 14 8 21 12 SSW 1021,5 - 0,0
12.12.2017 19:00:00 7,7 2,8 16 9 24 13 SW 1021,1 18 0,0
12.12.2017 18:00:00 8,0 3,6 12 7 22 12 S 1020,2 - 0,0
12.12.2017 17:00:00 10,3 3,8 11 6 22 12 WSW 1019,6 - 0,0
12.12.2017 16:00:00 10,2 3,9 17 9 29 16 W 1018,9 20 0,0
12.12.2017 15:00:00 10,7 4,4 22 12 28 15 W 1018,6 - 0,0
12.12.2017 14:00:00 12,2 3,4 10 5 19 11 WSW 1018,3 - 0,0
12.12.2017 13:00:00 11,4 4,4 11 6 23 12 WSW 1018,1 - 0,0
12.12.2017 12:00:00 10,1 5,1 14 8 27 15 WSW 1018,2 18 0,0
12.12.2017 11:00:00 6,9 5,0 20 11 35 19 SW 1017,9 - 0,6
12.12.2017 10:00:00 6,2 4,5 12 7 24 13 SSW 1016,8 18 0,0
12.12.2017 09:00:00 4,3 3,1 18 10 24 13 S 1015,8 - 0,0
12.12.2017 08:00:00 4,6 3,4 19 10 25 13 S 1014,8 - 0,0
12.12.2017 07:00:00 4,8 3,6 17 9 23 13 S 1013,8 - 0,0
12.12.2017 06:00:00 5,4 4,0 13 7 27 15 S 1012,7 - 0,0
12.12.2017 05:00:00 7,4 4,9 18 10 49 26 N 1011,8 - 2,0
12.12.2017 04:00:00 6,7 3,8 42 23 106 57 WNW 1010,6 - 9,2
12.12.2017 03:00:00 8,7 4,7 24 13 62 34 WNW 1008,5 - 0,4
12.12.2017 02:00:00 6,6 5,1 19 10 48 26 SSW 1007,8 - 1,2
12.12.2017 01:00:00 7,9 5,7 34 19 76 41 WNW 1007,0 10 4,6
12.12.2017 00:00:00 6,2 4,7 37 20 61 33 WSW 1006,4 - 2,6
11.12.2017 23:00:00 6,8 4,8 28 15 48 26 SW 1004,3 - 0,8
11.12.2017 22:00:00 6,9 5,2 35 19 53 29 WSW 1003,6 - 1,7
11.12.2017 21:00:00 6,9 4,7 42 23 67 36 WSW 1002,3 - 0,2
11.12.2017 20:00:00 6,8 4,8 40 22 74 40 WSW 1000,6 - 1,0
11.12.2017 19:00:00 8,0 5,8 50 27 76 41 WSW 999,0 8 2,6
11.12.2017 18:00:00 8,5 5,6 31 17 84 45 WSW 997,4 - 1,0
11.12.2017 17:00:00 9,9 4,9 46 25 72 39 WSW 995,2 - 0,0
11.12.2017 16:00:00 10,2 5,2 53 29 85 46 WSW 993,2 20 0,4
11.12.2017 15:00:00 11,5 4,2 50 27 74 40 W 992,5 - 0,0
11.12.2017 14:00:00 12,0 4,2 31 17 61 33 W 991,5 - 0,0
11.12.2017 13:00:00 12,1 4,1 46 25 71 38 WSW 991,3 - 0,0
11.12.2017 12:00:00 12,8 4,0 23 12 39 21 SW 991,4 - 0,0
11.12.2017 11:00:00 10,7 4,6 21 11 35 19 SW 990,7 - 0,0
11.12.2017 10:00:00 9,0 5,0 21 11 35 19 SW 989,6 - 0,0
11.12.2017 09:00:00 8,6 6,0 19 10 57 31 SSW 989,3 - 0,4
11.12.2017 08:00:00 9,0 5,6 28 15 45 24 SW 988,6 - 0,2
11.12.2017 07:00:00 8,8 6,9 23 12 45 24 SSW 987,6 20 0,2
11.12.2017 06:00:00 9,4 7,3 28 15 60 32 SW 986,4 - 1,0
11.12.2017 05:00:00 9,4 8,3 28 15 44 24 SW 986,0 - 1,2
11.12.2017 04:00:00 9,7 8,8 25 13 48 26 SW 985,7 - 2,6
11.12.2017 03:00:00 10,5 9,7 39 21 75 41 WSW 985,7 - 5,7

tt = Température de l'air
td = dewpoint
ff = Vitesse du vent
fx = gusts
dd = Direction du vent
ppp = reduced air pressure
vv = visibility
rr = Quantités de précipitations

stations d'obs. à proximité